カタログに戻る

ARIANE 1 DEB *

運用中SSO
NORAD 18290·DEBRIS·🇫🇷 France

打ち上げ Feb 22, 1986 から Guiana Space Centre

Loading…

次のパス (今後24時間)

TLE

最新Source: Space-Track

元期: Sep 14, 2026, 13:13 UTC

1 18290U 86019RY  26257.55085799  .00000185  00000-0  60026-4 0  9996
2 18290  97.9533 160.7699 0090697 147.4799 213.2027 14.46538289159842

AllMySatでARIANE 1 DEB *をリアルタイム追跡

Download on the App Store